Wind_Gust
14 11 11 12 19 21 23 14 13 16 19 21 18 13 19 15 13 15 13 20 25 21 18 16 16 19 17 18 18 18 18 22 21 22 23 25 25 26 27 26 26 26 24 19 19 20 22 20 20 17 17 17 15 13 13 18 19 18 14 11 11 12 12 11 11 11 10 11 8 9 12 9 8 8 8 9 10 10 8 7 7 11 10 11 9 10 10
14 13 16 14 16 22 24 17 13 14 13 18 14 16 19 16 13 23 22 22 21 21 19 19 18 18 18 17 16 18 21 24 22 22 22 24 26 27 27 27 27 26 26 27 24 19 17 19 19 20 15 17 15 13 13 11 12 16 19 14 9 13 10 11 11 9 11 9 9 6 7 8 8 8 8 8 8 8 8 8 8 9 9 9 11 12 12
19 18 15 16 18 17 20 18 17 16 15 17 18 17 21 23 21 22 25 25 23 18 15 16 14 16 18 17 16 19 20 23 21 20 21 23 25 26 27 27 27 26 27 27 26 26 25 24 21 17 13 20 17 14 18 14 12 12 11 12 16 12 9 10 8 10 9 9 8 10 8 5 4 5 7 4 5 7 7 8 6 6 7 10 9 10 13
12 14 14 16 17 16 16 18 17 20 14 7 11 12 8 14 21 21 22 21 21 19 15 16 15 16 18 21 19 17 18 20 20 21 22 23 24 25 25 25 25 25 25 25 24 23 23 24 25 23 19 21 19 18 12 15 14 17 16 10 13 12 11 10 10 10 9 12 10 6 5 8 9 6 5 6 6 6 6 7 5 4 6 9 9 6 7
12 9 11 13 13 13 18 18 15 18 12 11 18 18 16 13 15 18 11 18 22 22 19 18 17 16 18 19 19 19 21 22 20 20 21 23 23 23 24 24 23 23 23 22 22 21 22 25 24 26 27 22 20 16 17 17 14 12 14 16 10 10 11 11 8 7 11 10 10 8 6 6 5 7 8 9 8 8 10 7 5 6 8 8 8 4 6
10 12 13 9 13 16 16 13 13 9 14 13 14 16 15 14 12 15 21 24 23 22 21 22 22 21 18 20 21 21 18 20 21 20 20 21 21 22 23 22 23 22 22 22 23 22 22 22 22 21 23 25 23 24 25 24 14 12 17 17 16 15 14 14 12 7 9 9 10 10 8 12 12 12 15 15 14 16 14 9 9 9 8 9 8 10 10
9 14 16 13 17 17 13 12 17 17 20 23 19 15 13 19 22 24 26 24 22 23 23 22 22 22 22 20 17 16 16 17 18 19 19 18 19 20 20 20 20 19 20 21 21 23 23 22 20 21 24 23 23 24 24 24 26 17 17 18 16 15 16 17 17 16 13 9 7 8 6 6 6 8 13 14 12 13 13 11 10 11 10 7 7 9 9
9 9 13 16 10 11 9 12 12 15 18 17 19 14 12 13 18 24 27 27 27 26 26 24 23 23 22 21 19 17 17 17 18 18 19 20 21 21 19 18 18 18 18 19 19 19 19 19 20 22 22 22 22 22 21 22 24 25 22 20 20 18 19 19 20 19 17 16 15 14 8 5 7 7 7 6 7 6 7 7 7 8 9 9 10 11 10
15 9 10 10 10 11 9 8 16 20 15 11 9 8 14 11 13 17 23 25 28 28 26 26 25 23 23 21 21 17 19 20 20 21 20 19 19 19 18 18 18 16 15 13 12 12 14 16 17 17 17 18 19 19 19 20 23 21 20 19 19 19 18 19 19 19 19 20 17 16 15 12 12 10 5 6 7 8 9 7 5 5 7 8 8 10 9
13 12 10 11 9 14 11 13 16 14 9 12 14 11 15 12 13 15 21 24 25 27 27 25 23 18 20 18 17 16 17 16 18 18 18 17 17 17 16 15 13 11 10 9 12 10 9 10 10 8 8 10 12 14 15 15 14 16 18 18 17 17 17 17 16 17 16 16 16 16 15 15 16 15 15 11 7 6 9 9 11 11 11 11 12 11 12
9 8 13 11 11 9 12 15 18 20 17 13 14 11 13 12 15 20 19 22 22 22 23 22 18 17 15 16 16 15 16 17 17 17 17 17 17 15 14 14 12 12 9 9 9 8 10 12 9 7 7 6 6 8 10 13 11 9 8 9 11 12 12 13 15 15 15 14 13 12 13 12 11 12 11 11 12 12 10 9 12 13 16 18 19 16 15
15 12 17 15 13 9 13 13 12 17 19 17 12 14 16 9 16 19 20 20 20 21 20 20 17 11 12 20 21 18 17 16 15 15 14 15 15 16 16 15 11 12 10 12 14 12 10 11 9 8 9 10 9 9 8 9 7 8 11 12 11 11 12 12 11 12 11 11 9 11 13 13 12 12 11 12 12 12 12 16 15 14 13 14 14 16 17
14 10 11 21 10 8 13 15 13 14 14 15 11 9 11 8 17 16 16 17 18 19 19 15 15 21 22 24 22 19 18 17 16 15 13 14 14 14 14 14 10 11 10 12 12 10 10 9 9 10 10 9 9 8 9 8 11 13 12 13 14 14 13 13 14 15 15 14 15 15 15 14 13 13 14 13 12 12 13 14 15 13 12 12 12 12 12
12 9 11 14 14 7 15 18 12 15 12 8 14 13 7 14 17 18 16 18 18 21 21 19 21 21 22 21 19 18 16 16 15 15 14 14 14 13 12 11 12 11 10 9 10 10 9 10 12 12 12 12 11 13 12 12 12 13 15 16 16 15 15 16 17 16 15 15 15 15 16 16 15 15 14 15 14 14 16 15 14 15 13 15 17 14 11
11 7 12 11 9 9 14 16 10 19 11 13 13 15 19 16 17 21 22 23 21 20 21 21 21 20 18 17 17 16 15 14 14 13 13 11 12 11 9 10 12 10 7 9 9 7 7 8 10 10 10 9 10 11 11 11 12 14 14 13 14 15 16 16 16 17 16 16 16 17 16 16 16 17 16 16 16 16 17 17 18 18 18 16 15 15 13
13 13 12 13 14 11 14 17 14 13 15 16 13 17 20 17 16 18 19 19 18 18 18 16 16 17 17 15 14 14 14 13 12 12 11 11 10 9 9 10 11 9 7 9 6 6 7 7 7 6 7 7 8 10 9 8 10 10 11 11 12 13 13 15 16 16 17 18 18 18 19 19 18 18 17 17 17 18 17 17 19 18 18 19 19 18 16
19 14 14 12 9 14 14 13 12 12 17 17 15 21 17 15 16 15 17 18 16 16 16 15 15 15 11 11 11 11 12 12 10 10 11 9 8 8 8 10 9 9 8 6 6 7 6 5 6 5 5 6 7 8 9 7 9 11 11 12 13 13 15 16 14 15 15 16 17 18 18 19 21 21 19 18 22 19 19 20 22 22 21 20 20 19 17
20 20 16 14 13 14 16 16 14 12 13 14 21 23 23 22 22 20 21 21 23 21 10 16 13 13 13 11 10 9 10 9 10 8 10 10 8 8 7 9 10 9 7 5 7 6 6 7 6 5 6 6 8 8 9 10 12 13 13 14 14 16 17 16 17 19 19 19 18 17 16 18 19 21 21 22 23 22 22 21 21 22 22 23 23 21 20
8 9 11 14 16 15 15 17 19 19 16 17 18 20 20 18 17 18 16 18 17 17 20 16 14 13 10 9 9 8 9 9 8 9 9 8 7 7 8 9 9 9 7 7 8 7 6 6 9 8 7 10 12 12 12 14 15 16 17 18 18 18 19 21 20 21 19 20 19 20 20 20 19 20 21 22 22 21 23 24 22 21 22 21 21 21 20
9 16 13 14 14 13 13 13 14 16 15 15 15 16 15 15 16 15 15 13 13 11 12 10 11 9 7 9 9 9 9 8 9 10 9 7 7 8 8 8 9 8 5 6 6 5 8 8 10 12 13 14 15 16 15 15 16 17 17 17 19 20 21 21 21 21 22 12 17 21 21 22 21 19 17 19 22 23 22 21 20 21 24 23 21 22 22
16 15 13 14 14 12 14 15 14 13 13 14 14 13 14 14 14 14 11 11 10 11 11 9 10 13 11 9 6 7 8 8 9 10 9 9 8 8 9 8 7 8 8 7 8 10 10 11 12 12 12 14 15 15 16 18 18 18 19 17 18 19 20 19 19 17 19 19 20 21 21 21 23 22 20 19 23 23 23 20 13 15 20 23 22 19 12
10 10 13 14 9 12 13 11 12 14 14 13 13 13 13 12 13 14 16 13 12 13 12 11 11 11 11 9 8 8 8 9 10 8 10 9 10 10 9 9 8 7 6 7 9 10 11 11 12 13 13 15 15 16 17 18 18 18 19 19 18 17 17 17 18 17 17 19 19 20 22 22 22 22 13 13 15 22 24 23 25 14 5 13 13 18 12
13 13 13 7 10 16 13 13 13 13 12 11 11 10 13 12 10 6 7 8 12 18 17 14 16 12 10 10 9 10 11 10 9 9 12 13 11 11 10 11 9 7 8 9 8 9 11 12 13 14 15 16 16 17 17 18 18 18 18 18 18 18 17 17 16 18 20 20 20 21 21 22 23 23 23 20 14 20 18 18 16 14 8 10 9 11 13
14 11 11 8 12 17 13 11 10 9 7 7 9 12 10 8 8 7 7 9 9 9 12 22 17 13 10 9 8 6 8 7 10 12 11 11 10 10 10 9 10 10 8 7 8 10 12 12 13 14 15 15 16 17 17 18 18 18 18 18 18 18 18 18 19 16 20 20 20 20 21 21 22 22 23 24 23 16 17 16 13 8 6 9 11 8 10
14 11 10 13 16 15 13 9 9 9 9 16 15 13 13 13 12 8 8 13 13 13 12 14 18 14 9 8 9 8 10 9 12 11 11 13 7 9 9 8 8 8 8 8 9 10 11 12 13 14 15 16 16 17 17 17 17 17 17 17 17 18 19 19 19 16 18 20 19 19 20 21 20 20 22 22 25 23 19 14 9 7 6 5 6 8 9
14 11 9 10 9 10 9 12 11 8 8 8 9 9 14 11 11 9 10 10 12 9 7 6 8 7 8 10 8 8 8 11 10 8 11 13 13 11 9 8 8 8 9 10 11 12 11 13 15 14 15 16 17 18 18 17 17 17 18 18 18 18 18 19 21 20 19 18 19 19 18 19 20 21 20 21 22 24 24 23 23 12 9 8 6 6 6
9 9 8 8 10 9 12 18 15 9 9 8 9 10 8 13 9 10 11 8 7 7 7 10 8 12 14 10 10 10 12 12 12 10 11 12 11 10 9 8 8 9 11 12 12 11 10 14 13 14 15 16 17 18 18 18 17 16 17 18 18 14 11 9 13 15 17 19 19 19 18 17 18 18 20 18 18 19 22 23 21 23 25 13 5 7 10
8 7 7 6 6 9 8 8 9 10 7 8 6 10 9 12 9 8 8 6 7 9 9 10 10 10 12 11 10 11 11 12 11 10 11 12 12 11 10 10 11 13 13 13 12 10 12 13 13 14 15 16 18 18 17 17 17 15 14 15 17 17 16 14 12 10 12 12 13 17 18 17 16 16 16 18 20 22 21 20 20 22 19 17 6 2 10
6 9 6 7 8 8 7 7 7 8 6 6 8 11 11 9 6 8 9 8 8 9 10 9 7 8 11 12 12 12 12 12 13 11 11 11 11 11 11 11 12 13 14 13 12 13 12 13 14 14 15 16 17 17 16 17 18 16 16 16 16 15 13 10 12 13 15 17 17 16 9 8 11 15 18 19 20 22 21 21 18 19 19 14 12 11 9
7 8 6 6 7 8 8 9 7 6 8 11 11 8 8 9 9 8 8 8 8 10 9 9 10 11 10 11 13 15 14 12 14 13 12 12 11 10 10 13 15 15 16 10 10 13 12 13 15 15 15 15 17 16 17 17 17 16 15 15 13 11 12 12 13 15 17 17 15 8 7 7 11 16 18 18 19 20 17 17 16 16 18 15 5 9 14
8 7 6 5 8 9 10 10 8 7 9 9 7 9 9 8 10 9 8 9 8 9 8 10 10 10 10 12 15 14 13 13 12 11 12 11 11 8 11 13 14 13 14 16 16 15 14 15 17 15 14 15 17 17 17 16 18 16 14 15 14 8 2 6 8 14 15 13 11 10 11 12 15 15 11 14 16 18 19 17 15 15 12 13 9 13 16
7 7 7 9 9 11 10 9 9 9 10 8 6 8 9 9 10 10 9 9 8 8 9 11 9 11 14 13 10 11 11 6 5 5 5 5 4 4 9 13 13 10 14 14 13 16 16 16 18 15 15 16 16 16 17 17 16 15 14 11 14 14 12 10 12 14 10 7 11 11 10 12 15 15 16 12 14 14 15 14 13 10 4 6 7 7 11
11 13 12 10 10 9 9 8 8 9 9 9 6 8 10 10 10 9 8 8 9 11 12 10 15 14 10 9 6 6 5 4 3 5 5 5 5 5 6 12 13 13 12 15 16 17 17 17 15 13 14 16 15 15 15 17 15 14 14 15 15 13 7 8 10 16 11 11 12 13 14 13 15 15 14 13 14 14 16 15 12 8 7 8 13 12 9
11 10 7 6 10 12 10 11 9 9 9 9 7 9 12 13 10 8 9 10 13 10 11 12 13 10 6 5 5 4 2 4 6 4 3 4 6 7 7 9 13 14 15 15 13 14 11 11 13 13 15 16 15 15 15 14 14 14 13 15 14 13 14 13 12 14 14 13 14 12 13 12 15 15 14 14 13 13 10 12 9 4 7 11 10 9 11
9 8 9 11 8 7 9 11 12 10 11 10 8 11 14 12 8 8 10 10 10 14 11 16 13 8 7 6 3 4 3 3 5 7 6 6 5 6 9 12 12 13 13 12 12 10 10 12 14 14 14 16 15 14 12 12 14 15 14 14 12 14 14 12 12 12 13 13 12 14 12 13 12 10 13 16 14 10 9 8 8 10 9 9 10 12 10
10 10 12 12 8 9 10 11 9 9 11 11 3 12 14 13 9 10 10 10 8 11 19 17 10 8 7 6 5 6 5 5 5 6 7 8 8 9 8 12 11 13 12 11 7 9 12 12 11 12 13 14 16 13 11 12 14 15 13 12 13 13 12 12 11 11 9 12 14 12 11 9 11 15 15 15 13 4 7 10 9 10 12 13 12 12 12
9 11 12 9 8 9 9 10 10 11 9 9 10 12 11 11 13 10 8 10 12 13 13 18 14 9 8 8 5 5 5 5 6 5 5 4 6 6 8 8 12 12 13 10 9 12 12 14 12 14 14 14 11 12 11 8 14 15 12 11 13 12 12 12 12 12 13 11 12 12 10 10 8 14 12 14 13 12 9 9 13 12 14 13 11 11 11
10 12 9 6 8 7 8 9 11 10 7 7 8 10 12 12 11 11 12 11 10 9 8 9 16 12 8 6 5 5 6 5 5 5 5 6 7 8 9 9 10 11 8 7 11 12 10 12 10 12 16 14 10 10 11 13 13 15 12 12 12 11 11 12 11 10 12 14 12 14 10 11 10 10 13 14 13 11 8 11 11 13 13 13 12 12 12
11 9 8 8 9 9 9 8 7 9 8 8 10 12 11 11 12 12 10 10 11 10 7 10 12 16 15 14 10 9 9 9 7 6 7 8 8 9 10 9 11 9 5 8 10 11 9 10 14 16 16 13 13 13 11 11 15 16 13 12 12 11 11 10 12 11 13 13 15 17 13 12 10 9 10 11 7 5 9 10 13 12 15 14 12 12 11
10 9 10 9 9 8 9 8 9 9 8 8 11 11 11 12 12 12 12 15 13 11 9 10 11 10 14 16 14 14 13 11 9 8 9 8 10 13 15 14 15 10 10 3 9 8 7 7 11 13 14 15 14 14 12 15 16 14 10 13 13 13 12 11 11 12 12 14 14 10 14 15 16 14 15 15 14 13 13 11 13 14 15 15 16 16 14
12 11 9 11 11 10 10 10 9 8 9 9 10 10 11 12 13 14 14 12 11 10 11 9 10 11 11 11 12 11 13 15 15 15 14 12 9 11 12 14 13 11 9 8 9 10 11 8 13 11 12 14 11 11 15 15 17 13 9 13 14 13 12 12 11 12 11 12 11 13 14 14 14 16 15 16 17 17 16 13 13 12 16 17 17 17 17
13 13 14 14 15 13 12 10 11 11 9 9 10 10 11 11 12 13 12 12 11 8 10 11 6 9 11 11 9 8 8 13 15 15 15 14 12 9 11 8 14 12 6 5 10 13 16 13 10 9 13 14 13 11 13 15 15 11 8 12 13 12 12 12 12 11 11 11 12 12 12 13 14 13 14 15 17 16 17 15 10 13 15 16 16 17 16
16 13 16 18 13 15 16 14 14 12 11 10 11 12 13 13 13 14 13 12 11 11 11 11 14 10 10 11 10 10 10 9 10 11 11 12 13 13 12 10 11 13 2 6 10 13 10 13 13 13 10 12 12 12 14 16 14 8 10 9 11 12 12 12 13 13 13 13 13 14 14 11 10 10 11 13 13 13 14 14 13 11 14 15 16 13 14
17 16 14 13 14 14 11 13 16 18 14 10 9 11 12 12 13 14 14 14 13 12 11 11 11 11 11 10 10 10 10 11 12 11 12 13 14 13 11 9 11 11 5 7 8 11 11 13 12 11 10 13 13 15 15 17 10 9 7 9 8 10 11 12 12 13 13 13 12 11 12 12 11 12 11 11 11 12 12 12 12 14 16 16 15 15 14
20 20 18 14 13 15 17 14 15 12 18 20 14 11 12 13 14 14 14 14 13 12 11 11 11 10 10 10 10 10 10 7 7 7 10 10 11 14 11 5 6 8 9 5 10 9 14 12 10 9 10 12 14 16 17 14 8 8 7 9 7 8 10 12 12 12 12 13 13 13 12 13 13 13 14 13 10 10 10 9 10 11 12 13 14 14 13
19 21 19 12 17 16 15 8 14 14 20 19 18 12 12 13 12 12 13 14 14 13 12 12 11 11 11 10 9 8 8 8 9 7 9 9 11 12 11 7 10 7 6 5 10 9 13 6 8 8 11 11 13 17 15 9 11 12 11 6 9 8 9 11 12 13 13 12 12 12 13 14 13 14 13 13 12 13 13 11 13 13 14 13 13 12 11
14 15 16 19 21 19 15 13 9 11 13 18 20 15 9 10 11 13 15 15 14 13 13 12 12 11 10 10 10 9 11 11 11 10 9 12 14 10 9 7 6 3 3 8 8 9 9 9 7 8 10 12 12 16 12 9 8 8 7 11 13 10 8 10 10 14 14 14 13 13 10 12 12 14 13 11 12 12 11 10 12 12 13 14 14 14 13
16 15 14 17 19 20 18 11 11 11 19 20 13 11 11 9 11 13 14 14 13 13 13 12 12 12 11 10 10 10 9 8 7 11 11 9 14 13 13 10 11 4 4 3 6 5 5 3 4 7 9 11 15 13 8 10 10 10 10 10 11 13 12 8 8 8 10 14 11 11 12 13 12 12 11 12 12 12 12 11 10 10 10 10 10 10 9
20 20 19 19 20 12 13 14 16 16 19 16 11 13 14 13 13 13 13 14 15 15 15 14 14 13 12 11 10 11 10 9 9 7 12 8 10 12 14 10 8 8 10 11 11 11 7 6 5 7 10 10 12 8 10 9 9 9 10 9 8 9 11 11 10 8 9 9 10 10 11 11 11 11 11 11 11 11 12 11 11 10 11 11 12 13 12
20 20 20 19 17 14 11 10 14 15 14 12 11 9 9 14 16 14 12 12 14 15 16 16 15 15 14 15 14 12 11 9 9 7 8 8 9 12 13 12 12 7 6 10 6 12 7 7 6 7 11 10 7 8 7 8 8 9 8 9 9 9 10 10 7 8 10 9 9 9 8 8 9 11 11 10 11 11 12 12 12 10 9 8 9 10 10
12 19 19 18 17 14 13 12 12 12 13 12 15 14 15 16 15 12 17 14 8 11 16 16 16 14 14 14 14 13 11 11 10 6 9 10 9 6 5 10 12 8 10 10 7 8 12 13 7 6 8 6 8 6 7 6 7 8 5 6 5 8 8 7 7 8 8 7 9 10 11 11 11 11 10 10 10 11 11 10 10 9 8 10 10 10 10
10 15 21 20 19 22 19 13 12 11 11 11 12 12 12 11 12 12 13 12 17 9 11 16 20 19 13 14 14 12 12 12 11 11 8 10 11 12 9 5 9 10 10 10 9 7 6 9 7 3 6 7 7 7 5 2 6 6 6 7 6 7 8 8 9 9 8 10 8 9 11 10 10 11 10 10 9 11 9 9 9 9 9 10 10 10 10
Wind_Speed
7 4 5 2 5 11 13 7 7 8 9 13 11 8 8 8 3 5 5 12 15 12 11 8 10 11 10 11 11 11 12 13 13 13 14 15 14 13 15 16 16 16 12 8 12 12 12 12 11 10 9 9 9 7 3 7 12 11 8 4 4 5 6 7 5 5 3 3 3 4 6 3 3 3 3 3 3 2 2 2 3 5 4 3 3 3 3
8 7 7 7 3 8 12 11 5 8 8 12 9 10 12 10 7 15 12 13 12 11 11 12 11 11 11 10 9 10 13 15 14 13 14 15 15 15 16 16 16 15 16 16 13 11 10 12 12 12 8 7 8 7 7 4 1 5 8 7 5 6 5 4 4 4 4 3 2 2 1 2 2 2 2 2 2 3 3 2 2 3 3 4 5 4 4
8 10 9 8 10 10 11 11 10 7 8 11 11 9 13 15 12 13 16 15 12 7 9 8 8 9 10 10 9 12 13 14 13 13 13 13 14 16 16 16 16 16 17 17 16 16 16 16 13 8 6 8 7 8 8 5 6 5 6 8 7 6 3 2 4 3 4 4 4 3 1 3 3 1 1 0 1 1 1 1 2 2 2 3 3 4 6
4 6 6 7 8 10 9 11 10 10 8 3 6 2 4 8 10 12 13 11 7 8 7 10 7 8 10 13 12 11 10 12 13 13 13 13 14 15 15 14 15 16 16 16 15 15 15 15 16 14 12 12 9 8 4 8 7 10 8 4 6 6 5 1 3 5 4 5 3 3 1 2 3 1 0 0 1 2 2 2 1 0 2 3 3 3 2
3 3 2 5 6 4 7 7 6 6 6 6 6 7 8 7 9 8 3 7 10 10 9 10 10 9 11 12 11 10 13 13 12 13 13 13 13 14 14 14 14 14 13 14 14 14 14 14 14 16 16 13 11 9 9 6 7 6 8 7 4 5 5 3 4 3 5 5 5 1 2 1 1 2 1 1 1 1 3 2 1 1 2 1 3 2 2
3 2 3 4 3 6 1 5 8 4 7 7 6 7 8 8 6 2 8 12 12 12 10 10 12 10 7 11 12 12 10 11 12 12 12 12 12 13 13 13 13 13 12 12 12 14 14 14 14 13 14 14 13 15 14 14 8 7 10 10 9 8 7 6 4 4 6 3 2 1 2 2 1 1 1 4 3 3 3 3 2 3 2 3 3 3 1
1 5 9 3 7 1 3 5 9 10 14 15 12 9 8 12 14 16 15 14 14 12 12 11 13 14 14 12 11 10 10 10 10 11 11 11 11 11 12 12 12 11 12 12 13 14 14 13 12 12 13 13 12 13 13 14 15 10 10 10 10 9 9 10 10 10 7 6 4 2 2 2 1 4 8 8 7 7 7 6 5 5 5 4 3 2 1
1 2 4 3 2 3 4 5 7 9 11 11 12 9 7 8 10 13 14 14 15 15 14 13 12 12 13 11 10 10 10 11 10 11 11 12 12 11 10 11 10 10 10 10 10 10 9 10 11 11 11 11 12 11 11 12 12 13 12 11 11 10 10 10 11 10 10 10 9 9 4 1 4 3 3 2 3 2 3 3 3 3 3 3 4 4 4
0 3 1 1 3 2 4 3 8 8 7 5 4 1 5 6 6 9 13 16 16 17 16 15 14 14 13 11 10 10 12 12 12 12 12 11 11 11 9 8 7 8 7 7 7 5 6 6 8 7 8 9 10 9 10 9 9 10 10 10 9 8 8 9 9 8 8 8 9 8 8 8 8 7 2 1 2 2 2 2 2 2 2 3 4 5 5
4 4 1 2 1 2 2 7 9 9 6 8 8 5 7 7 6 10 13 14 15 16 16 15 14 12 10 9 8 8 9 10 12 11 11 11 10 10 9 8 8 6 4 4 5 4 3 5 4 4 5 4 5 7 8 8 7 7 7 7 8 9 9 9 9 10 9 7 6 6 6 7 7 6 7 6 4 1 2 2 4 4 5 5 4 4 5
2 2 3 2 1 3 2 7 11 13 10 8 9 2 3 3 9 11 12 13 12 12 13 13 10 7 6 6 7 7 9 10 9 10 10 10 10 9 8 7 6 6 4 5 5 4 3 5 4 1 3 3 2 1 2 6 6 5 5 6 6 6 5 6 7 8 8 8 6 5 5 6 5 6 6 6 6 6 5 3 4 5 6 6 7 7 7
4 4 5 1 3 3 7 7 4 8 12 11 5 5 4 3 10 12 12 12 11 10 9 9 7 4 5 8 8 9 9 9 7 7 8 9 9 9 9 8 5 7 5 7 7 4 5 6 4 4 5 4 5 5 3 2 2 5 7 7 7 7 7 7 7 7 6 6 5 5 6 6 6 6 6 6 5 6 6 6 5 4 5 5 6 8 9
4 4 2 4 3 2 5 8 8 4 5 6 2 0 3 3 8 7 9 11 11 11 10 5 5 11 11 12 12 11 11 10 9 8 7 8 8 8 8 7 6 5 5 6 5 4 4 4 3 4 5 4 4 5 4 4 7 7 7 8 8 8 7 7 7 7 7 7 7 8 7 7 7 6 6 6 6 6 6 6 6 6 7 5 4 5 5
3 2 1 4 4 2 6 8 7 8 4 2 5 3 3 7 10 10 9 10 11 13 11 10 10 10 12 13 11 11 10 9 8 8 8 7 7 7 7 7 6 5 4 5 5 5 4 4 6 6 5 6 5 6 6 6 7 7 7 7 7 7 6 7 7 7 7 7 7 7 7 7 7 7 7 7 7 6 6 6 7 7 6 6 7 7 6
3 2 1 4 3 3 8 9 3 10 3 3 4 6 12 8 10 13 14 13 9 9 12 13 11 11 11 10 10 9 8 7 7 7 6 6 6 5 5 5 6 4 3 4 3 3 3 4 5 5 6 6 6 6 6 6 6 6 6 6 6 6 7 7 7 7 7 7 7 6 7 7 8 8 8 8 8 8 8 9 10 11 10 9 7 7 7
4 4 4 4 4 5 8 8 4 6 6 5 6 9 9 6 8 10 10 11 10 9 9 10 9 10 10 8 8 7 7 7 6 6 6 5 5 4 4 5 5 3 2 4 1 2 2 3 2 2 3 3 4 5 4 3 4 4 5 5 6 6 6 7 7 7 8 8 8 7 8 9 9 10 9 8 8 7 8 8 8 8 8 8 9 10 8
5 4 5 5 4 6 6 5 5 7 11 9 10 13 9 6 8 8 8 10 9 10 10 10 9 8 6 7 6 6 5 5 4 5 5 4 4 3 3 5 5 4 3 2 2 3 2 2 2 1 1 1 3 3 4 3 3 4 5 5 4 5 7 7 6 7 7 7 7 7 7 7 8 9 9 9 9 8 8 9 9 10 9 10 9 9 8
11 10 8 6 6 8 9 9 6 7 8 8 13 12 10 12 12 11 10 11 13 13 6 9 7 7 7 7 5 4 4 4 4 3 5 4 4 4 3 5 5 4 2 1 4 2 2 3 1 2 1 1 4 3 2 3 5 6 6 7 6 7 8 7 8 9 8 8 9 9 8 6 7 7 8 9 9 9 9 9 9 9 9 10 11 10 10
1 4 6 8 9 8 8 9 11 11 10 10 10 11 11 9 9 9 10 10 10 10 12 10 8 8 5 5 3 3 3 3 3 4 4 3 3 3 4 5 4 3 2 2 4 2 0 2 3 3 3 3 5 5 5 6 5 6 6 7 7 7 8 9 9 9 10 8 7 7 8 8 8 8 7 7 8 9 9 9 9 10 10 10 9 10 8
2 7 6 8 8 7 6 6 7 8 8 9 9 9 8 8 8 8 7 6 7 6 6 6 6 5 4 5 5 4 3 2 4 4 4 3 3 3 3 4 4 3 1 2 1 2 1 2 3 4 6 7 7 7 7 7 7 8 8 8 9 9 10 10 9 9 9 9 10 7 8 8 8 8 7 6 6 8 8 9 8 7 6 8 10 11 12
7 8 7 7 7 7 8 8 7 6 6 7 7 7 7 6 7 6 5 6 5 5 5 4 6 7 6 4 2 3 3 2 3 4 3 3 2 2 3 3 2 3 3 2 2 4 4 5 6 5 5 5 6 7 7 8 7 8 7 8 8 9 9 8 8 7 7 8 8 8 9 9 8 8 8 8 8 8 9 9 7 8 10 9 8 10 7
3 3 6 6 3 5 5 6 7 8 8 8 8 8 8 7 8 8 8 6 6 7 6 5 5 6 5 4 2 2 2 3 4 2 3 3 4 3 3 3 2 2 0 1 3 3 4 4 4 5 6 6 7 7 8 8 8 7 8 7 8 8 8 7 8 7 7 8 8 9 9 9 10 9 10 12 10 9 10 14 19 13 7 8 2 4 5
5 6 7 1 4 8 5 7 7 7 7 6 6 5 8 7 5 2 3 3 6 9 7 8 7 5 5 4 3 3 4 4 2 3 6 6 5 4 4 4 4 2 2 3 3 3 4 5 5 6 7 7 7 8 8 8 9 9 9 7 6 8 7 7 7 8 8 8 9 9 9 10 10 10 9 10 12 14 13 14 14 12 8 8 8 9 4
8 6 4 2 6 7 6 5 5 5 4 3 5 7 4 2 3 2 3 4 3 5 7 11 5 7 4 4 3 0 1 0 5 6 5 4 4 3 3 4 3 4 2 2 2 4 5 5 6 6 6 7 7 7 7 7 7 8 8 7 7 7 8 8 7 7 8 9 9 9 9 9 10 9 10 9 10 10 14 14 12 8 6 7 9 7 9
6 5 5 7 9 8 5 4 5 5 5 9 6 6 7 7 5 3 2 4 4 6 3 7 11 5 4 2 2 2 4 4 7 3 5 7 3 3 3 3 3 3 3 2 3 4 4 5 6 6 6 6 6 7 7 7 7 7 7 8 8 8 8 7 7 7 6 7 7 8 9 9 9 9 9 10 9 10 10 13 9 7 6 6 6 8 8
7 4 4 4 4 5 4 6 6 4 3 1 4 4 8 5 4 4 3 4 6 4 2 2 4 2 3 3 2 2 2 4 3 1 3 6 6 4 3 3 3 2 3 4 4 5 5 6 6 6 6 6 7 7 7 7 7 7 7 7 8 7 7 7 8 7 8 8 8 8 8 8 8 8 9 9 9 10 10 9 11 8 6 6 6 2 5
4 5 4 3 5 4 7 9 7 5 4 2 4 5 3 5 3 2 3 3 2 1 2 4 2 5 7 5 4 3 3 4 5 2 4 4 5 4 4 3 3 5 5 4 5 4 4 6 5 6 6 7 7 6 6 6 6 6 4 5 6 7 8 6 5 6 5 6 6 8 8 8 8 8 8 8 8 9 9 10 10 10 12 6 2 7 3
2 1 2 1 1 4 4 3 4 5 1 3 1 4 3 5 4 0 2 1 2 3 4 5 3 2 3 4 4 4 2 3 4 2 3 4 5 5 4 5 6 7 7 6 6 4 5 5 5 6 6 6 7 7 7 7 7 7 5 6 6 5 5 5 5 4 5 6 6 6 6 7 7 6 6 7 8 8 9 10 9 10 7 8 2 2 9
1 4 1 3 4 4 3 3 1 3 1 1 2 5 5 3 1 2 4 2 2 2 3 3 2 1 3 4 4 4 4 5 7 6 4 3 4 5 5 5 6 6 8 7 5 5 5 6 7 6 6 6 7 7 8 8 7 7 7 6 6 5 5 4 5 5 6 7 6 7 6 4 4 6 6 7 7 8 9 8 9 7 8 8 2 3 5
1 3 2 1 2 4 3 3 2 2 2 5 6 3 3 3 3 2 1 3 1 4 3 3 3 4 3 5 7 8 8 6 5 6 6 6 5 4 3 5 7 8 9 4 5 5 5 5 7 8 6 6 8 8 7 6 6 6 6 6 4 4 4 5 5 7 7 6 6 6 4 3 4 5 6 7 7 8 7 8 7 7 9 8 1 1 1
3 3 1 1 2 3 4 4 2 2 3 4 1 4 4 2 4 4 3 3 3 2 3 4 4 3 4 4 7 6 6 6 5 4 4 4 4 3 3 4 6 6 6 7 7 6 6 7 7 8 5 7 8 7 7 7 7 7 6 5 5 2 2 5 7 6 5 4 5 4 4 5 5 5 4 5 6 6 8 7 7 6 6 6 2 5 6
4 3 1 3 3 5 5 3 2 2 3 3 0 2 3 4 5 4 4 3 3 3 4 6 4 5 8 6 5 6 5 3 2 2 2 2 2 2 3 5 6 6 6 7 6 7 7 7 9 7 6 7 7 7 6 7 7 6 5 5 5 4 5 6 6 7 5 3 4 5 4 4 5 5 6 5 4 5 6 7 6 5 2 2 4 0 7
4 6 6 5 5 4 4 3 3 3 3 4 1 1 2 3 4 4 3 2 3 4 6 3 8 7 5 5 2 3 2 2 1 2 2 3 3 3 3 5 5 6 5 7 8 8 9 8 7 5 7 7 7 7 6 5 5 4 3 4 5 5 4 3 4 7 6 6 5 5 5 6 5 6 6 5 7 5 6 7 6 4 3 5 7 7 4
5 4 2 1 3 5 4 5 4 3 3 3 1 1 4 5 5 3 4 4 6 2 5 6 7 5 3 3 3 2 1 1 1 0 0 2 4 4 3 4 6 6 7 8 8 6 4 4 6 6 6 7 7 6 6 6 5 4 4 5 5 6 5 5 5 5 6 6 6 7 6 5 5 6 6 7 6 7 5 5 6 3 4 6 6 4 6
3 2 2 5 4 2 3 4 5 4 4 4 2 2 5 6 4 0 4 3 4 7 3 9 6 5 4 4 2 3 1 1 2 3 3 3 3 4 4 6 5 5 6 6 6 4 3 4 7 5 5 7 7 6 4 5 6 6 6 5 5 5 5 5 5 5 5 5 5 6 4 4 5 5 7 7 7 6 2 2 2 3 4 5 2 2 3
5 4 4 6 3 2 4 4 4 3 3 5 1 3 7 7 4 4 5 5 3 2 10 8 5 4 4 3 3 3 3 3 3 3 3 4 4 4 4 6 5 5 6 5 2 4 5 3 7 9 6 5 6 4 4 5 6 6 4 3 4 5 5 5 5 4 4 4 6 5 4 4 5 7 7 7 5 1 2 3 3 3 3 3 3 3 2
2 3 4 4 1 3 4 4 3 5 4 3 3 4 5 5 5 5 4 4 4 6 6 10 6 4 4 5 3 3 3 3 2 2 1 1 2 3 4 5 6 5 5 4 4 5 4 6 8 10 7 5 3 6 5 7 5 6 2 4 4 5 5 4 4 4 5 5 6 7 6 4 2 4 6 5 5 6 4 4 6 5 3 3 3 3 4
4 5 5 2 2 3 4 3 5 4 2 2 2 3 4 4 4 4 4 4 5 3 1 5 8 5 4 3 3 4 4 4 4 3 3 3 3 3 5 4 3 5 2 1 4 4 3 6 8 7 6 5 3 3 6 11 10 7 4 5 5 4 4 4 5 4 5 6 7 8 5 3 3 3 4 4 5 5 4 4 5 5 4 4 6 6 5
4 5 3 3 3 3 4 4 1 3 3 2 3 5 5 5 5 6 5 3 4 5 2 3 6 8 7 7 5 5 6 6 4 4 4 4 3 4 5 4 5 4 1 2 3 3 3 4 6 6 6 6 7 6 7 9 11 6 5 5 5 5 4 4 5 5 6 6 6 8 7 7 6 6 6 7 5 2 3 6 7 7 6 5 5 5 5
4 3 4 3 4 3 3 3 3 4 2 2 3 4 4 5 5 5 4 6 7 5 3 2 5 4 7 9 8 7 7 7 5 5 5 3 4 6 7 7 7 5 5 2 2 2 2 5 6 4 5 6 6 5 6 9 10 5 2 5 5 5 4 5 5 5 5 6 6 6 6 7 8 8 7 6 6 6 5 5 7 6 7 7 7 7 7
5 4 3 5 5 4 4 4 3 2 3 3 4 4 4 5 4 5 7 6 6 3 4 3 4 4 5 5 5 5 7 7 7 7 6 5 3 4 4 6 6 5 4 2 3 3 5 3 5 4 4 5 4 5 5 9 7 4 2 5 6 5 5 5 5 5 5 5 5 5 6 6 6 7 7 7 8 8 8 6 5 6 7 8 8 7 8
7 6 6 6 7 6 5 4 4 5 4 3 3 4 5 6 6 6 6 6 6 3 2 5 2 1 4 5 4 2 1 6 8 8 8 6 5 3 3 1 7 5 2 2 5 6 7 5 3 5 4 5 5 8 9 7 6 4 2 5 5 5 5 5 5 5 5 5 6 6 5 5 6 6 6 6 7 7 8 7 5 6 8 8 8 7 7
10 6 9 10 7 6 5 6 6 6 6 4 4 4 5 6 6 6 6 6 5 5 5 5 6 3 3 5 5 4 4 4 4 4 5 6 6 6 5 2 5 4 1 2 2 5 3 6 5 4 5 5 5 9 11 6 6 2 3 4 6 5 5 5 5 5 6 5 6 7 7 5 4 4 5 6 6 6 7 8 7 6 7 7 7 7 7
10 9 7 7 5 7 5 1 3 8 8 5 4 4 5 5 5 6 6 6 6 6 5 5 4 5 5 4 4 4 4 4 5 4 4 5 6 7 5 2 4 4 3 2 2 4 4 6 4 4 6 9 9 11 7 7 5 2 2 3 2 4 5 5 5 5 5 5 5 4 3 5 5 5 4 4 4 5 6 6 6 7 8 8 7 7 7
8 10 11 8 7 6 7 6 5 6 0 10 8 4 4 5 7 7 6 6 7 5 5 5 4 3 4 3 4 4 3 2 2 1 3 3 4 5 4 3 2 4 2 2 3 2 6 4 4 6 7 8 10 12 7 6 2 2 1 3 1 3 4 5 5 5 5 6 6 5 4 4 4 4 4 5 5 4 5 5 5 6 6 5 5 6 7
7 9 11 9 9 6 6 2 7 5 4 5 10 6 5 5 6 5 5 6 7 6 5 5 5 5 4 4 4 3 2 2 3 2 3 3 4 5 4 5 4 4 2 2 3 4 4 4 5 6 7 8 9 7 6 3 4 5 5 2 3 4 3 5 6 5 5 5 5 5 5 5 4 5 4 4 5 5 5 6 7 7 7 6 6 5 6
7 7 6 5 10 12 9 6 4 2 2 4 8 8 4 4 4 4 5 7 7 6 6 5 6 5 4 4 4 3 4 4 4 4 3 5 6 5 5 5 4 2 1 1 3 4 3 2 3 5 7 8 8 6 5 3 3 2 2 4 6 3 3 5 5 6 6 5 5 6 6 5 4 5 5 4 5 4 4 5 5 5 6 7 7 8 7
7 8 6 6 10 12 11 6 5 3 4 8 5 2 5 5 5 6 7 7 7 6 6 5 5 6 6 5 4 4 4 3 2 5 4 4 6 6 6 4 4 3 2 2 4 3 2 3 3 4 6 7 6 6 1 4 4 4 4 4 5 6 6 3 2 3 5 7 5 5 4 5 5 5 4 4 4 3 3 4 4 3 4 4 4 5 5
6 7 9 10 11 7 4 2 5 5 5 7 5 1 2 6 6 6 5 5 7 7 7 7 7 6 6 6 4 3 4 3 3 1 5 3 4 5 5 6 7 6 4 4 5 4 5 5 4 5 7 7 5 1 4 3 3 3 3 3 3 3 4 4 4 3 4 4 4 4 4 4 5 4 4 4 4 3 5 4 3 3 4 4 4 6 5
3 5 8 9 8 7 5 4 5 6 7 6 4 2 3 2 4 4 5 6 4 5 6 7 7 6 5 5 6 5 4 3 3 2 3 3 4 6 6 6 5 5 4 4 3 5 4 5 5 5 6 4 1 3 2 3 2 2 3 3 3 2 3 4 5 6 5 4 3 3 3 3 3 5 6 4 4 4 4 4 5 6 7 5 3 4 3
2 1 4 8 9 7 7 6 4 4 5 3 2 2 5 7 6 4 3 4 2 2 4 7 7 6 6 5 6 5 5 5 4 3 3 3 3 3 3 6 6 4 4 4 3 3 4 4 2 2 3 1 3 2 2 2 2 2 2 2 2 3 2 2 2 2 2 2 3 4 4 4 4 4 3 3 3 3 4 4 3 3 3 3 3 3 3
1 1 1 4 8 10 9 7 6 5 4 3 4 5 5 4 4 4 5 3 5 2 4 2 5 9 6 5 5 5 5 5 4 3 3 4 4 4 3 4 3 4 3 3 3 2 2 3 4 1 3 2 2 2 2 0 1 2 2 3 2 2 3 3 4 3 3 3 2 3 4 3 3 3 3 3 3 4 3 3 3 3 3 4 4 4 3
Wind_Direction
260 174 202 60 335 316 328 327 5 300 345 20 16 357 302 275 264 151 142 127 120 127 110 115 97 100 102 105 107 100 102 103 95 90 88 88 89 83 72 65 57 53 52 79 97 96 96 90 78 70 77 87 97 97 57 330 331 358 11 47 109 128 133 147 154 146 130 146 126 136 162 191 157 146 144 172 203 224 210 185 155 172 173 199 184 207 228
231 234 238 254 286 309 312 327 7 8 52 42 30 34 38 30 113 135 145 118 105 116 107 90 99 94 98 103 115 118 104 92 91 87 85 84 78 74 69 62 58 55 51 42 48 62 78 104 115 118 118 122 127 132 132 127 5 12 359 354 344 42 69 86 112 127 122 118 125 77 155 136 164 161 154 210 211 209 205 182 170 174 201 189 193 194 231
230 217 221 226 235 241 283 315 321 16 46 65 36 32 75 83 79 95 110 107 104 89 98 104 105 124 122 119 114 105 101 95 90 84 84 85 84 78 70 65 61 56 49 43 42 42 41 32 36 58 118 120 105 132 131 132 125 132 107 59 22 331 298 142 106 81 93 100 114 146 139 46 33 64 144 132 301 274 252 191 183 173 227 265 225 205 202
245 244 222 215 220 218 244 271 286 303 324 34 93 51 41 108 117 111 104 110 122 134 143 126 103 121 124 110 108 104 96 90 87 84 82 76 74 75 74 72 66 59 53 49 44 41 39 38 35 32 31 51 47 39 105 137 126 106 100 139 163 201 218 47 68 115 125 128 104 57 41 144 141 104 82 114 338 339 313 280 257 208 192 245 269 250 254
249 273 223 217 193 202 219 235 263 252 252 124 115 93 112 118 128 132 152 124 138 137 148 149 152 137 121 124 115 103 86 79 85 81 74 68 65 62 60 58 58 55 54 48 40 34 34 31 31 22 14 21 26 25 25 36 108 122 134 135 126 74 47 12 39 85 87 60 63 120 122 19 80 104 340 316 267 291 301 293 310 300 274 237 253 248 235
224 238 241 215 226 223 233 359 334 297 205 173 104 82 83 133 166 121 108 127 136 138 140 134 129 123 111 92 83 84 86 83 76 76 73 73 70 65 61 58 52 46 42 40 36 34 32 30 28 26 23 11 5 14 14 9 12 75 60 50 42 36 43 68 67 6 73 102 88 27 105 143 278 46 12 292 264 246 250 258 229 238 234 238 262 285 294
320 48 25 324 218 200 5 324 24 52 74 88 91 77 78 89 100 106 113 127 135 136 136 123 98 87 84 83 89 98 100 99 96 93 86 78 73 70 64 56 53 51 45 39 32 26 24 21 21 22 21 15 13 21 19 17 4 17 61 60 43 31 30 19 20 16 36 53 76 217 65 36 270 197 202 213 216 213 226 225 208 211 215 203 214 241 317
300 301 156 213 129 341 18 12 23 65 86 88 89 77 60 79 103 120 128 136 134 130 123 118 126 127 120 112 107 111 111 109 109 99 88 82 73 59 49 52 51 52 53 51 45 34 19 20 23 26 21 13 14 13 23 17 12 19 30 41 35 25 21 16 8 15 10 14 12 359 358 199 209 202 233 228 233 197 198 203 189 221 219 177 201 205 208
279 285 196 90 13 315 69 101 34 352 32 352 338 116 111 108 137 138 141 143 135 129 125 121 117 112 105 96 87 81 85 86 83 85 85 86 93 101 92 74 48 38 44 65 74 56 47 28 28 15 17 18 12 7 15 18 16 14 16 20 29 23 17 9 3 8 8 11 4 354 354 339 348 346 313 174 232 217 235 207 168 189 226 206 208 211 199
211 246 172 206 125 188 60 12 10 359 357 342 335 89 122 145 130 96 90 104 118 122 125 127 127 124 111 102 97 97 100 95 96 100 106 104 99 98 107 121 131 124 123 91 84 70 90 67 24 351 10 16 20 16 357 0 7 9 20 15 18 14 7 2 360 357 352 347 353 354 343 334 345 338 338 335 327 268 222 219 212 211 214 224 232 230 218
201 243 256 254 62 78 347 11 335 346 336 340 328 243 107 93 108 110 111 109 115 120 126 129 138 142 123 113 106 108 104 99 102 117 115 114 109 109 116 123 139 168 164 162 137 123 58 70 66 54 168 180 210 122 58 331 345 13 43 16 12 3 350 356 348 340 336 334 331 336 324 327 330 326 325 323 321 329 314 274 236 223 207 206 222 231 225
231 248 261 312 80 93 8 4 8 316 323 326 319 223 147 138 129 124 123 127 124 136 137 151 178 238 158 143 139 129 114 111 111 90 91 88 82 79 85 86 78 77 98 91 68 32 43 27 26 20 8 13 357 351 31 346 335 24 18 6 355 356 358 353 341 324 315 322 335 335 327 319 322 317 315 314 301 301 306 301 300 283 252 241 215 205 219
262 255 112 96 118 87 356 339 331 327 304 314 263 163 112 128 103 117 126 132 138 149 161 182 87 58 84 108 121 124 119 112 106 103 91 82 79 82 74 52 42 95 92 68 69 67 53 50 16 1 16 15 353 16 5 354 24 14 5 2 360 351 342 328 322 328 333 337 332 326 320 317 314 308 301 293 294 284 288 288 281 283 285 282 261 241 190
338 321 13 84 86 329 292 312 319 323 295 56 93 91 98 113 114 122 127 100 72 78 82 85 85 91 100 109 116 116 109 101 101 101 96 94 96 95 91 73 53 49 61 67 47 38 33 16 14 11 22 13 18 22 9 9 10 4 352 350 340 335 329 333 334 328 328 324 324 316 303 293 291 284 279 280 279 287 281 281 283 276 269 259 257 251 238
318 319 139 127 81 41 342 306 322 357 62 103 136 71 54 57 89 86 73 79 97 99 98 92 94 99 106 104 101 101 101 97 89 82 84 88 85 79 96 94 61 11 76 78 57 59 64 39 13 17 12 13 23 8 358 359 357 347 340 333 335 334 330 322 322 317 313 313 310 310 307 303 296 287 284 284 281 279 275 266 263 264 265 267 263 257 244
312 42 64 51 47 53 21 19 70 12 42 100 89 88 75 68 96 91 88 84 90 96 98 97 100 101 96 98 100 99 98 102 101 103 97 88 83 82 82 81 52 5 63 64 70 85 60 53 33 44 19 24 15 343 318 352 314 308 311 326 325 322 321 316 307 311 314 312 308 306 307 309 307 304 299 289 279 275 273 271 274 270 266 257 248 251 246
37 72 94 115 89 62 67 62 91 72 41 39 61 55 53 88 94 80 84 78 84 97 104 102 100 87 81 76 82 90 98 93 80 102 100 71 69 72 76 76 34 348 37 53 106 64 50 105 112 99 92 334 336 318 344 345 313 318 322 314 309 305 305 302 307 303 299 291 284 286 292 299 298 298 297 299 292 284 276 272 267 265 263 264 262 255 241
78 63 75 93 93 80 70 59 57 68 63 63 71 72 73 49 48 53 58 52 43 31 77 117 103 107 111 105 91 98 93 95 108 86 79 71 59 58 60 66 29 344 360 134 96 61 67 83 28 174 251 335 263 277 304 306 329 330 314 309 315 316 309 307 301 301 297 305 307 304 302 293 291 296 299 300 295 290 288 288 283 273 267 261 261 263 263
227 86 105 89 92 88 79 80 61 61 70 63 67 73 69 71 71 74 64 60 53 48 35 54 69 59 51 94 103 103 112 100 104 108 87 75 60 52 47 64 9 332 20 24 65 43 27 222 255 305 29 314 325 345 1 339 322 305 317 318 318 317 311 307 307 306 306 295 299 302 300 296 286 275 269 276 286 292 290 277 272 278 283 288 284 274 270
42 110 117 115 107 104 104 109 95 92 92 90 83 76 75 80 82 78 83 72 71 72 85 90 84 83 45 27 21 18 68 75 81 69 58 41 39 52 48 55 348 295 137 45 107 187 274 324 0 7 350 356 344 351 343 333 331 337 338 345 334 321 311 306 307 306 302 314 313 298 293 295 300 298 288 284 289 290 294 299 309 311 320 316 300 282 270
94 106 122 124 116 116 106 98 97 96 95 94 104 110 112 115 106 115 120 118 112 110 119 146 160 145 123 97 47 358 360 57 63 48 32 31 25 29 5 27 304 292 28 28 335 326 360 11 20 358 3 341 335 337 337 342 346 338 334 329 320 308 308 307 305 312 308 303 303 306 309 302 296 301 307 311 304 298 299 304 317 313 307 302 324 337 353
152 141 125 137 150 134 100 110 115 118 125 128 124 137 135 127 135 135 132 134 155 156 151 136 106 75 86 80 43 328 80 83 66 31 41 2 22 350 14 310 281 305 70 73 347 8 359 7 359 356 336 335 336 342 342 339 340 337 331 320 313 311 311 311 303 307 306 305 303 302 301 300 301 294 292 295 294 296 299 301 304 297 263 277 252 4 342
59 100 129 69 57 119 123 125 130 130 131 137 146 133 116 118 106 113 144 143 180 157 168 135 112 112 97 89 51 29 9 31 25 39 31 2 334 352 353 314 277 119 41 5 349 2 347 358 348 348 347 338 335 339 344 346 351 340 328 317 307 305 306 304 316 319 308 303 304 301 299 298 296 297 300 300 298 294 291 292 293 305 287 235 184 155 194
87 97 97 337 106 126 134 127 126 124 117 117 120 114 119 216 145 135 126 190 203 170 96 85 79 87 71 76 81 125 353 48 45 28 1 317 313 332 316 281 12 8 352 358 355 354 345 342 349 347 333 330 342 347 353 356 349 338 328 322 312 310 310 313 323 318 309 305 303 299 299 298 296 300 299 298 294 290 298 298 298 299 294 302 281 237 189
103 90 89 97 111 126 141 129 95 78 30 29 49 74 47 43 44 132 101 357 12 26 49 123 93 82 63 16 341 357 14 342 74 22 270 257 251 338 316 352 350 352 355 340 336 336 332 340 340 336 324 335 351 357 357 358 2 345 328 319 311 307 306 311 312 309 307 306 302 299 295 296 298 298 297 299 303 307 311 308 289 260 282 276 274 265 221
111 103 92 97 116 121 164 175 147 102 114 265 208 170 104 76 49 325 326 334 18 30 46 348 60 66 99 261 233 276 271 326 57 250 354 7 359 336 328 346 358 298 317 333 327 311 335 339 307 310 331 346 2 1 360 355 351 337 328 318 311 307 308 303 295 293 296 295 295 294 292 293 294 294 295 295 295 300 307 311 314 301 216 228 253 244 285
94 130 147 177 144 151 70 54 76 65 77 317 17 347 104 120 158 200 222 174 134 256 79 19 318 243 234 242 330 351 12 321 290 333 15 350 333 334 349 340 333 341 321 307 305 309 290 281 306 333 343 7 7 3 360 356 330 313 303 309 308 300 287 280 283 281 274 273 273 279 285 286 284 287 289 295 302 307 309 307 306 308 311 295 281 302 335
120 65 5 315 60 72 63 130 155 175 179 20 29 259 272 204 193 222 267 242 162 224 223 214 251 309 313 297 268 294 319 309 309 334 356 347 346 336 327 355 348 335 322 299 288 306 319 331 328 336 351 5 352 355 357 344 330 330 336 330 317 315 322 322 303 283 278 274 264 259 263 269 282 292 298 296 297 294 295 296 289 290 293 324 328 20 65
72 80 75 60 58 63 71 73 95 340 103 100 283 271 280 305 196 196 255 260 260 306 303 282 246 277 278 305 339 312 321 7 14 14 24 360 326 310 335 340 324 304 287 286 291 324 337 333 324 336 354 6 347 354 354 345 346 351 345 335 336 332 315 313 310 302 301 302 300 293 272 261 272 281 284 291 292 290 291 280 287 300 311 302 222 90 83
119 97 84 126 183 196 198 228 215 172 199 217 228 256 273 298 306 299 189 239 269 262 274 327 324 284 329 341 4 23 44 44 18 359 351 338 12 15 345 324 311 288 267 267 11 358 331 318 309 321 355 352 347 356 359 340 352 1 336 333 336 329 338 345 319 311 312 328 331 317 293 268 266 272 281 292 296 302 296 295 290 291 293 297 29 77 160
166 146 230 6 319 311 282 282 258 249 269 290 340 352 322 276 270 287 281 290 281 298 313 296 288 306 327 42 63 50 50 42 15 351 342 9 49 29 354 314 297 304 327 334 329 321 320 309 303 303 347 354 353 353 354 351 5 355 343 341 335 7 89 330 319 309 319 328 307 314 307 296 292 290 286 276 285 285 285 280 279 279 281 281 227 194 194
184 163 192 271 254 255 257 246 245 268 284 283 266 232 289 303 272 261 279 306 319 299 298 276 305 48 62 57 46 58 54 44 13 351 340 349 345 336 308 290 283 287 294 299 292 289 286 288 289 299 2 358 347 352 355 7 8 4 343 336 332 354 3 349 330 330 314 313 305 301 297 296 299 306 299 291 286 289 295 296 297 304 306 282 275 20 111
198 198 205 220 263 289 294 289 287 293 304 313 279 224 271 254 261 270 285 285 304 276 259 45 77 86 81 69 66 56 60 6 307 289 291 281 270 273 265 275 280 281 276 270 267 265 264 261 268 344 11 347 339 342 5 8 352 2 358 354 334 340 352 4 346 330 337 333 325 335 323 316 313 307 305 301 288 280 283 290 295 313 336 38 35 19 18
220 255 57 53 243 256 290 337 355 326 293 266 313 235 232 241 249 229 234 228 237 268 40 88 111 105 99 97 101 106 74 359 279 218 229 282 292 281 276 263 263 274 273 269 267 271 293 324 17 20 350 333 328 340 1 6 336 5 19 6 350 339 340 3 355 347 339 336 328 319 313 308 312 306 300 294 292 278 274 292 294 338 48 57 51 19 26
241 214 215 232 228 264 296 296 307 306 300 282 237 210 254 259 256 342 73 291 288 275 256 113 112 113 118 124 133 144 160 221 258 268 276 279 289 293 287 289 287 279 279 274 268 276 356 29 47 4 345 316 319 328 23 352 349 355 6 18 5 348 353 359 358 337 328 314 320 325 316 314 296 287 278 281 278 280 312 3 335 69 64 59 54 53 43
210 192 215 234 227 266 295 317 312 297 320 328 343 234 252 251 227 182 184 220 234 1 95 124 123 120 130 151 171 181 195 217 235 265 275 269 266 274 280 288 289 284 276 262 264 28 316 35 28 2 332 305 293 335 54 14 0 344 336 36 31 19 2 352 354 328 318 320 326 312 289 280 268 269 269 264 286 332 336 67 112 102 103 113 115 101 100
194 227 237 255 288 336 341 297 285 315 301 214 219 234 248 279 264 222 221 278 259 247 150 132 139 147 181 196 207 180 185 203 230 244 272 315 311 306 294 279 277 275 279 282 47 348 336 37 3 331 307 295 278 69 69 42 18 322 350 58 40 33 2 354 359 332 349 340 333 319 291 265 314 331 321 344 353 350 35 92 104 96 97 107 110 89 69
162 228 242 240 265 248 246 306 339 294 273 349 276 244 250 246 256 274 259 238 252 282 38 150 154 171 169 180 201 196 204 208 216 233 249 256 260 269 272 259 258 253 260 32 8 328 25 18 333 314 313 297 349 61 79 35 6 333 7 58 57 38 16 358 352 351 4 353 350 331 327 2 3 6 20 23 19 360 43 73 78 78 69 60 55 55 64
224 218 220 213 239 270 310 312 270 308 309 218 226 243 225 219 267 288 271 278 324 337 63 239 188 166 170 179 199 211 216 217 211 207 224 243 248 250 255 265 277 293 4 45 344 309 33 15 319 310 308 9 11 5 38 19 355 341 352 74 63 49 26 6 2 1 5 353 352 348 354 5 356 1 9 6 352 17 53 62 69 75 81 70 63 58 63
256 256 251 238 265 261 248 248 280 290 286 221 216 235 262 254 221 226 249 255 238 161 185 279 282 230 187 189 202 202 200 196 201 202 216 229 247 260 264 254 248 243 118 96 288 343 349 291 295 311 18 10 2 14 1 350 337 314 338 64 68 61 45 23 10 5 5 360 355 354 13 16 11 12 8 4 17 29 30 59 77 78 82 82 77 73 68
229 268 293 279 255 232 230 242 252 247 254 256 249 241 235 242 253 248 245 251 270 206 190 234 257 264 263 260 237 216 177 176 186 199 201 219 242 250 250 265 213 150 102 58 348 308 289 305 296 354 27 353 355 29 359 326 321 297 6 74 67 57 53 41 37 20 8 358 1 15 20 24 24 21 14 19 18 13 8 33 73 86 93 99 97 83 77
246 228 247 233 243 242 255 249 243 246 251 249 240 231 236 244 243 243 250 239 253 252 227 242 172 317 327 328 324 335 195 175 184 188 190 205 232 262 283 38 85 82 69 247 237 253 255 214 132 66 26 352 335 347 338 310 295 286 73 85 84 77 60 57 60 40 28 22 21 20 29 36 28 23 26 32 23 19 19 11 42 76 77 77 84 87 87
303 236 208 228 241 261 262 258 250 251 238 243 232 226 227 230 230 235 241 242 233 233 223 225 132 154 234 244 250 247 241 226 220 214 212 220 234 249 262 314 90 92 280 288 309 284 320 65 54 44 8 354 320 323 317 305 288 298 62 101 111 100 88 79 69 59 51 44 35 25 17 10 24 41 38 28 28 27 22 26 25 47 81 89 86 86 89
297 293 278 259 225 212 157 191 16 331 298 253 224 238 217 221 224 229 235 250 244 230 232 254 229 211 199 213 220 238 241 217 210 205 222 227 209 211 214 268 100 98 54 326 280 309 58 63 54 2 348 345 330 330 314 293 277 78 69 50 70 107 95 84 77 81 80 68 61 55 32 27 26 29 36 41 36 35 34 35 37 53 64 68 72 80 84
287 286 286 297 297 297 269 242 207 197 233 315 284 244 257 218 208 223 233 238 244 238 232 228 251 265 261 230 223 228 259 302 315 253 239 252 220 162 130 112 117 115 80 355 285 355 69 49 27 4 353 337 332 327 309 298 360 70 89 95 63 73 96 89 92 93 96 102 100 89 78 67 67 56 49 47 43 42 37 36 47 61 72 77 78 82 82
276 297 300 293 275 256 270 187 141 164 194 267 280 248 221 240 238 212 232 242 243 241 233 220 233 238 242 247 240 234 245 253 250 263 293 44 68 92 67 64 74 85 32 339 299 70 87 67 16 0 340 328 330 320 303 337 3 9 8 15 111 103 92 105 99 90 88 99 107 104 93 85 75 70 65 58 52 50 48 52 56 55 60 65 68 69 72
265 264 281 313 308 298 268 216 153 177 196 226 256 265 248 228 228 224 228 236 244 246 240 224 221 225 218 231 251 225 211 216 204 197 190 115 112 108 102 102 113 129 223 299 37 54 49 25 346 335 321 318 321 305 302 22 25 29 27 6 355 53 99 104 108 119 110 97 105 114 112 110 107 104 97 88 80 69 65 64 67 68 69 68 69 69 71
322 307 288 247 228 231 245 207 145 165 229 254 243 20 318 264 230 226 225 226 224 223 237 237 221 208 208 198 213 258 274 279 246 178 169 149 138 149 161 165 150 150 127 116 108 110 147 224 254 291 303 309 307 283 357 50 30 32 25 29 30 16 15 44 69 85 126 151 164 125 119 106 94 83 88 90 91 89 86 79 77 75 74 74 74 75 78
284 290 305 301 286 274 293 216 166 205 229 247 250 159 349 313 280 245 234 217 240 236 228 223 225 218 200 190 202 210 228 230 282 34 130 156 151 134 113 119 140 156 192 226 170 169 205 228 256 269 285 288 281 323 77 75 76 63 47 37 41 38 33 24 16 29 61 62 63 57 62 76 92 99 97 87 91 92 89 83 82 88 88 78 69 62 62
307 320 279 271 281 286 273 228 210 213 209 218 166 171 199 231 290 314 344 314 252 227 227 232 229 216 210 186 187 215 220 192 200 137 147 135 121 128 147 154 156 181 205 283 169 156 178 197 233 252 274 280 339 69 74 84 71 76 98 89 78 72 58 69 62 51 61 77 75 80 88 84 69 59 63 71 72 71 72 75 70 69 69 77 82 83 79
131 251 310 292 265 256 254 255 252 251 260 247 239 231 220 231 236 231 195 271 285 302 335 307 278 240 216 198 181 206 193 181 181 183 162 159 167 130 125 138 148 170 196 239 258 176 159 186 188 218 274 296 84 55 51 60 95 90 74 99 120 116 124 116 86 86 83 100 125 126 122 122 123 112 111 115 119 119 122 127 129 115 103 99 90 88 84
273 206 252 320 334 319 303 267 248 241 244 238 199 216 217 216 231 233 238 257 289 226 146 128 308 289 263 221 181 189 183 165 148 152 186 163 166 160 128 129 156 160 190 217 233 235 137 117 122 139 277 280 112 107 116 312 111 113 119 112 92 99 108 124 137 138 131 112 100 104 107 120 123 121 128 129 123 112 102 93 87 87 83 86 91 93 98